This is the latest recevied weather packets stored in our database for station/object VU2IB-13. If no packets are shown the sender has not sent any weather packets the latest 10 day(s).
| Time | Temp. | Humidity | Pressure | Rain* | Wind** | Luminosity | Snow |
|---|---|---|---|---|---|---|---|
| 1788081852 | 33.33° C | 84% | 1001 hPa | - | - | - | - |
| 1788081790 | 33.33° C | 84% | 1001 hPa | - | - | - | - |
| 1788081664 | 33.33° C | 83% | 1001 hPa | - | - | - | - |
| 1788081601 | 33.33° C | 86% | 1001 hPa | - | - | - | - |
| 1788081540 | 33.33° C | 84% | 1001 hPa | - | - | - | - |
| 1788081479 | 33.33° C | 84% | 1001 hPa | - | - | - | - |
| 1788081418 | 33.33° C | 85% | 1001 hPa | - | - | - | - |
| 1788081356 | 33.33° C | 84% | 1001.1 hPa | - | - | - | - |
| 1788081295 | 33.33° C | 84% | 1001 hPa | - | - | - | - |
| 1788081233 | 33.33° C | 83% | 1001.1 hPa | - | - | - | - |
| 1788081171 | 33.33° C | 84% | 1000.9 hPa | - | - | - | - |
| 1788081109 | 33.33° C | 84% | 1001.1 hPa | - | - | - | - |
| 1788081049 | 33.33° C | 84% | 1001.1 hPa | - | - | - | - |
| 1788080987 | 33.33° C | 84% | 1001.1 hPa | - | - | - | - |
| 1788080925 | 33.33° C | 83% | 1001.1 hPa | - | - | - | - |
| 1788080863 | 33.33° C | 84% | 1001.1 hPa | - | - | - | - |
| 1788080801 | 33.33° C | 86% | 1001.1 hPa | - | - | - | - |
| 1788080740 | 33.33° C | 85% | 1001.1 hPa | - | - | - | - |
| 1788080679 | 33.33° C | 84% | 1001.1 hPa | - | - | - | - |
| 1788080617 | 33.33° C | 84% | 1001.1 hPa | - | - | - | - |
| 1788080556 | 33.33° C | 84% | 1001.2 hPa | - | - | - | - |
| 1788080494 | 33.33° C | 84% | 1001.2 hPa | - | - | - | - |
| 1788080433 | 33.33° C | 85% | 1001.2 hPa | - | - | - | - |
| 1788080372 | 33.33° C | 84% | 1001.2 hPa | - | - | - | - |
| 1788080310 | 33.33° C | 85% | 1001.3 hPa | - | - | - | - |
* Rain since midnight (hover to see other rain measurements)
** Current wind speed in m/s (hover to see current wind gust speed)